Time,TemperatureF,DewpointF,PressureIn,WindDirection,WindDirectionDegrees,WindSpeedMPH,WindSpeedGustMPH,Humidity,HourlyPrecipIn,Conditions,Clouds,dailyrainin,SolarRadiationWatts/m^2,SoftwareType,DateUTC
2013-07-10 00:02:00,69.0,61.0,-100.00,NNW,334,9.0,17.0,75,0.00,,,0.18,0.000000,,2013-07-10 05:02:00,
2013-07-10 00:32:00,68.0,61.0,-100.00,NNW,331,7.0,14.0,79,0.00,,,0.18,0.000000,,2013-07-10 05:32:00,
2013-07-10 00:42:00,68.0,61.0,-100.00,NNW,331,7.0,14.0,79,0.00,,,0.18,0.000000,,2013-07-10 05:42:00,
2013-07-10 00:53:00,68.0,61.0,-100.00,NNW,331,7.0,14.0,79,0.00,,,0.18,0.000000,,2013-07-10 05:53:00,
2013-07-10 01:01:00,68.0,61.0,-100.00,NNW,331,7.0,14.0,79,0.00,,,0.18,0.000000,,2013-07-10 06:01:00,
2013-07-10 01:33:00,66.0,56.0,-100.00,NW,309,10.0,16.0,70,0.00,,,0.18,0.000000,,2013-07-10 06:33:00,
2013-07-10 01:42:00,66.0,56.0,-100.00,NW,309,10.0,16.0,70,0.00,,,0.18,0.000000,,2013-07-10 06:42:00,
2013-07-10 01:52:00,66.0,56.0,-100.00,NW,309,10.0,16.0,70,0.00,,,0.18,0.000000,,2013-07-10 06:52:00,
2013-07-10 02:01:00,66.0,56.0,-100.00,NW,309,10.0,16.0,70,0.00,,,0.18,0.000000,,2013-07-10 07:01:00,
2013-07-10 02:33:00,63.0,54.0,-100.00,NW,315,9.0,15.0,73,0.00,,,0.18,0.000000,,2013-07-10 07:33:00,
2013-07-10 02:43:00,63.0,54.0,-100.00,NW,315,9.0,15.0,73,0.00,,,0.18,0.000000,,2013-07-10 07:43:00,
2013-07-10 02:53:00,63.0,54.0,-100.00,NW,315,9.0,15.0,73,0.00,,,0.18,0.000000,,2013-07-10 07:53:00,
2013-07-10 03:01:00,63.0,54.0,-100.00,NW,315,9.0,15.0,73,0.00,,,0.18,0.000000,,2013-07-10 08:01:00,
2013-07-10 03:33:00,62.0,55.0,-100.00,WNW,295,5.0,13.0,78,0.00,,,0.18,0.000000,,2013-07-10 08:33:00,
2013-07-10 03:42:00,62.0,55.0,-100.00,WNW,295,5.0,13.0,78,0.00,,,0.18,0.000000,,2013-07-10 08:42:00,
2013-07-10 03:53:00,62.0,55.0,-100.00,WNW,295,5.0,13.0,78,0.00,,,0.18,0.000000,,2013-07-10 08:53:00,
2013-07-10 04:02:00,62.0,55.0,-100.00,WNW,295,5.0,13.0,78,0.00,,,0.18,0.000000,,2013-07-10 09:02:00,
2013-07-10 04:33:00,60.0,55.0,-100.00,WNW,285,7.0,10.0,84,0.00,,,0.18,0.000000,,2013-07-10 09:33:00,
2013-07-10 04:43:00,60.0,55.0,-100.00,WNW,285,7.0,10.0,84,0.00,,,0.18,0.000000,,2013-07-10 09:43:00,
2013-07-10 04:53:00,60.0,55.0,-100.00,WNW,285,7.0,10.0,84,0.00,,,0.18,0.000000,,2013-07-10 09:53:00,
2013-07-10 05:01:00,60.0,55.0,-100.00,WNW,285,7.0,10.0,84,0.00,,,0.18,0.000000,,2013-07-10 10:01:00,
2013-07-10 05:32:00,58.0,55.0,-100.00,West,279,6.0,10.0,89,0.00,,,0.18,0.000000,,2013-07-10 10:32:00,
2013-07-10 05:51:00,-999.0,-99.9,-100.00,West,279,6.0,10.0,-999,-99.99,,,-99.99,0.000000,,2013-07-10 10:51:00,
2013-07-10 06:00:00,-999.0,-99.9,-100.00,West,279,6.0,10.0,-999,-99.99,,,-99.99,0.000000,,2013-07-10 11:00:00,
2013-07-10 08:52:00,63.0,56.0,-100.00,WNW,289,8.0,12.0,79,-99.99,,,0.18,255.000000,,2013-07-10 13:52:00,
2013-07-10 09:01:00,63.0,56.0,-100.00,WNW,289,8.0,12.0,79,-99.99,,,0.18,255.000000,,2013-07-10 14:01:00,
2013-07-10 09:33:00,67.0,57.0,-100.00,NW,305,7.0,12.0,71,0.00,,,0.14,444.000000,,2013-07-10 14:33:00,
2013-07-10 09:43:00,67.0,57.0,-100.00,NW,305,7.0,12.0,71,0.00,,,0.14,444.000000,,2013-07-10 14:43:00,
2013-07-10 09:53:00,67.0,57.0,-100.00,NW,305,7.0,12.0,71,0.00,,,0.14,444.000000,,2013-07-10 14:53:00,
2013-07-10 10:01:00,67.0,57.0,-100.00,NW,305,7.0,12.0,71,0.00,,,0.14,444.000000,,2013-07-10 15:01:00,
2013-07-10 10:34:00,70.0,56.0,-100.00,NW,307,11.0,16.0,61,0.00,,,0.02,632.000000,,2013-07-10 15:34:00,
2013-07-10 10:43:00,70.0,56.0,-100.00,NW,307,11.0,16.0,61,0.00,,,0.02,632.000000,,2013-07-10 15:43:00,
2013-07-10 10:52:00,70.0,56.0,-100.00,NW,307,11.0,16.0,61,0.00,,,0.02,632.000000,,2013-07-10 15:52:00,
2013-07-10 11:01:00,70.0,56.0,-100.00,NW,307,11.0,16.0,61,0.00,,,0.02,632.000000,,2013-07-10 16:01:00,
2013-07-10 11:33:00,72.0,57.0,-100.00,NW,309,13.0,20.0,59,0.00,,,0.02,752.000000,,2013-07-10 16:33:00,
2013-07-10 11:44:00,72.0,57.0,-100.00,NW,309,13.0,20.0,59,0.00,,,0.02,752.000000,,2013-07-10 16:44:00,
2013-07-10 11:53:00,72.0,57.0,-100.00,NW,309,13.0,20.0,59,0.00,,,0.02,752.000000,,2013-07-10 16:53:00,
2013-07-10 12:02:00,72.0,57.0,-100.00,NW,309,13.0,20.0,59,0.00,,,0.02,752.000000,,2013-07-10 17:02:00,
2013-07-10 12:32:00,73.0,57.0,-100.00,NW,311,13.0,20.0,57,0.00,,,0.00,882.000000,,2013-07-10 17:32:00,
2013-07-10 12:43:00,73.0,57.0,-100.00,NW,311,13.0,20.0,57,0.00,,,0.00,882.000000,,2013-07-10 17:43:00,
2013-07-10 12:53:00,73.0,57.0,-100.00,NW,311,13.0,20.0,57,0.00,,,0.00,882.000000,,2013-07-10 17:53:00,
2013-07-10 13:02:00,73.0,57.0,-100.00,NW,311,13.0,20.0,57,0.00,,,0.00,882.000000,,2013-07-10 18:02:00,
2013-07-10 13:32:00,75.0,55.0,-100.00,NW,304,14.0,20.0,50,0.00,,,0.00,932.000000,,2013-07-10 18:32:00,
2013-07-10 13:44:00,75.0,55.0,-100.00,NW,304,14.0,20.0,50,0.00,,,0.00,932.000000,,2013-07-10 18:44:00,
2013-07-10 13:53:00,75.0,55.0,-100.00,NW,304,14.0,20.0,50,0.00,,,0.00,932.000000,,2013-07-10 18:53:00,
2013-07-10 14:01:00,75.0,55.0,-100.00,NW,304,14.0,20.0,50,0.00,,,0.00,932.000000,,2013-07-10 19:01:00,
2013-07-10 14:32:00,76.0,54.0,-100.00,NW,318,13.0,20.0,46,0.00,,,0.00,920.000000,,2013-07-10 19:32:00,
2013-07-10 14:42:00,76.0,54.0,-100.00,NW,318,13.0,20.0,46,0.00,,,0.00,920.000000,,2013-07-10 19:42:00,
2013-07-10 14:53:00,76.0,54.0,-100.00,NW,318,13.0,20.0,46,0.00,,,0.00,920.000000,,2013-07-10 19:53:00,
2013-07-10 15:01:00,76.0,54.0,-100.00,NW,318,13.0,20.0,46,0.00,,,0.00,920.000000,,2013-07-10 20:01:00,
2013-07-10 15:32:00,78.0,52.0,-100.00,NW,318,13.0,21.0,41,0.00,,,0.00,922.000000,,2013-07-10 20:32:00,
2013-07-10 15:43:00,78.0,52.0,-100.00,NW,318,13.0,21.0,41,0.00,,,0.00,922.000000,,2013-07-10 20:43:00,
2013-07-10 15:52:00,78.0,52.0,-100.00,NW,318,13.0,21.0,41,0.00,,,0.00,922.000000,,2013-07-10 20:52:00,
2013-07-10 16:01:00,78.0,52.0,-100.00,NW,318,13.0,21.0,41,0.00,,,0.00,922.000000,,2013-07-10 21:01:00,
2013-07-10 16:32:00,78.0,56.0,-100.00,NW,319,10.0,19.0,47,0.00,,,0.00,820.000000,,2013-07-10 21:32:00,
2013-07-10 16:42:00,78.0,56.0,-100.00,NW,319,10.0,19.0,47,0.00,,,0.00,820.000000,,2013-07-10 21:42:00,
2013-07-10 16:52:00,78.0,56.0,-100.00,NW,319,10.0,19.0,47,0.00,,,0.00,820.000000,,2013-07-10 21:52:00,
2013-07-10 17:01:00,78.0,56.0,-100.00,NW,319,10.0,19.0,47,0.00,,,0.00,820.000000,,2013-07-10 22:01:00,
2013-07-10 18:32:00,78.0,56.0,-100.00,NW,307,8.0,12.0,47,-99.99,,,0.00,508.000000,,2013-07-10 23:32:00,
2013-07-10 18:43:00,78.0,56.0,-100.00,NW,307,8.0,12.0,47,-99.99,,,0.00,508.000000,,2013-07-10 23:43:00,
2013-07-10 18:52:00,78.0,56.0,-100.00,NW,307,8.0,12.0,47,-99.99,,,0.00,508.000000,,2013-07-10 23:52:00,
2013-07-10 19:01:00,78.0,56.0,-100.00,NW,307,8.0,12.0,47,-99.99,,,0.00,508.000000,,2013-07-11 00:01:00,
2013-07-10 19:32:00,77.0,56.0,-100.00,WNW,290,5.0,11.0,49,0.00,,,0.00,319.000000,,2013-07-11 00:32:00,
2013-07-10 19:43:00,77.0,56.0,-100.00,WNW,290,5.0,11.0,49,0.00,,,0.00,319.000000,,2013-07-11 00:43:00,
2013-07-10 19:52:00,77.0,56.0,-100.00,WNW,290,5.0,11.0,49,0.00,,,0.00,319.000000,,2013-07-11 00:52:00,
2013-07-10 20:01:00,77.0,56.0,-100.00,WNW,290,5.0,11.0,49,0.00,,,0.00,319.000000,,2013-07-11 01:01:00,
2013-07-10 20:32:00,74.0,58.0,-100.00,WNW,290,4.0,6.0,58,0.00,,,0.00,137.000000,,2013-07-11 01:32:00,
2013-07-10 20:43:00,74.0,58.0,-100.00,WNW,290,4.0,6.0,58,0.00,,,0.00,137.000000,,2013-07-11 01:43:00,
2013-07-10 20:52:00,74.0,58.0,-100.00,WNW,290,4.0,6.0,58,0.00,,,0.00,137.000000,,2013-07-11 01:52:00,
2013-07-10 21:02:00,74.0,58.0,-100.00,WNW,290,4.0,6.0,58,0.00,,,0.00,137.000000,,2013-07-11 02:02:00,
2013-07-10 21:32:00,67.0,62.0,-100.00,WNW,294,3.0,5.0,83,0.00,,,0.00,27.000000,,2013-07-11 02:32:00,
2013-07-10 21:44:00,67.0,62.0,-100.00,WNW,294,3.0,5.0,83,0.00,,,0.00,27.000000,,2013-07-11 02:44:00,
2013-07-10 21:53:00,67.0,62.0,-100.00,WNW,294,3.0,5.0,83,0.00,,,0.00,27.000000,,2013-07-11 02:53:00,
2013-07-10 22:02:00,67.0,62.0,-100.00,WNW,294,3.0,5.0,83,0.00,,,0.00,27.000000,,2013-07-11 03:02:00,
2013-07-10 22:33:00,63.0,60.0,-100.00,NNW,338,2.0,4.0,91,0.00,,,0.00,1.000000,,2013-07-11 03:33:00,
2013-07-10 22:42:00,63.0,60.0,-100.00,NNW,338,2.0,4.0,91,0.00,,,0.00,1.000000,,2013-07-11 03:42:00,
2013-07-10 22:53:00,63.0,60.0,-100.00,NNW,338,2.0,4.0,91,0.00,,,0.00,1.000000,,2013-07-11 03:53:00,
2013-07-10 23:01:00,63.0,60.0,-100.00,NNW,338,2.0,4.0,91,0.00,,,0.00,1.000000,,2013-07-11 04:01:00,
2013-07-10 23:32:00,62.0,59.0,-100.00,NW,317,2.0,5.0,90,0.00,,,0.00,0.000000,,2013-07-11 04:32:00,
2013-07-10 23:43:00,62.0,59.0,-100.00,NW,317,2.0,5.0,90,0.00,,,0.00,0.000000,,2013-07-11 04:43:00,
2013-07-10 23:53:00,62.0,59.0,-100.00,NW,317,2.0,5.0,90,0.00,,,0.00,0.000000,,2013-07-11 04:53:00,